Voltar ao catálogo

STARLINK-36898

AtivoComunicaçõesVLEO
NORAD 68002·PAYLOAD·🇺🇸 United States

Lançado Feb 27, 2026 de Vandenberg Space Force Base

Loading…

Próximas Passagens (próximas 24 horas)

TLE

AtualizadoSource: CelesTrak SupGP

Época: Sep 15, 2026, 03:14 UTC

1 68002C 26039S   26258.13520833 -.00028521  00000+0 -10327-2 0  2586
2 68002  43.0001  59.3428 0001502 266.7426  75.9853 15.27602497    19

Acompanhe STARLINK-36898 em tempo real com AllMySat

Download on the App Store